{"data":{"norad_id":63205,"epoch":"2026-09-22T18:28:01.884864Z","epoch_age_seconds":115139,"freshness":"FRESH","line1":"1 63205U 25050A   26265.76946626  .00003263  00000+0  24624-3 0  9999","line2":"2 63205  42.0194 282.6753 0003963  64.7521 295.3717 15.03909619 83656","mean_motion":15.03909619,"eccentricity":0.0003963,"inclination_deg":42.0194,"raan_deg":282.6753,"arg_perigee_deg":64.7521,"mean_anomaly_deg":295.3717,"bstar":0.00024624,"rev_number":8365,"period_min":95.750434853758,"perigee_km":552.10720313097,"apogee_km":557.60229239024,"semimajor_km":6932.9917477606,"source":"CELESTRAK","updated_at":"2026-09-23T09:00:21.896019Z"}}